Regional Weather Roundup
Issued by NWS Cleveland, OH

Home | Current Version | Previous Version | Graphics & Text | Print | Product List | Glossary On
Versions: 1 2 3 4 5 6 7 8 9 10 11 12 13 14 15 16 17 18 19 20 21 22 23 24 25 26 27 28 29 30 31 32 33 34 35 36 37 38 39 40 41 42 43 44 45 46 47 48 49 50
000
ASUS41 KCLE 101700
RWRCLE
OHIO REGIONAL WEATHER ROUNDUP
NATIONAL WEATHER SERVICE WILMINGTON, OH
1200 PM EST WED FEB 10 2016

NOTE: "FAIR" INDICATES FEW OR NO CLOUDS BELOW 12,000 FEET WITH NO
SIGNIFICANT WEATHER AND/OR OBSTRUCTIONS TO VISIBILITY.

OHZ001>008-015>018-024>027-034-035-043-044-101800-
   NORTHWEST OHIO

CITY           SKY/WX    TMP DP  RH WIND       PRES   REMARKS
DEFIANCE       CLOUDY    23  13  65 W14G20    29.90S WCI  11
FINDLAY        LGT SNOW  22  16  78 W17       29.88S WCI   8
TOLEDO EXPRESS CLOUDY    22  10  60 W15       29.87R WCI   9
TOLEDO EXEC    LGT SNOW  22  15  75 NW13G25   29.88R WCI  10
LIMA           CLOUDY    19  14  81 W17       29.90S WCI   4
$$

OHZ009>014-019>023-028>033-038-089-101800-
   NORTHEAST OHIO

CITY           SKY/WX    TMP DP  RH WIND       PRES   REMARKS
CLE-HOPKINS    LGT SNOW  22  15  75 W17G23    29.84R WCI   8
CLE-LAKEFRONT  LGT SNOW  24  18  77 W24G32    29.81R VSB 1   WCI   8
CUY CO. ARPT   LGT SNOW  23  21  93 W14G23    29.80R WCI  11
LORAIN-ELYRIA  LGT SNOW  21  14  74 W15       29.84R WCI   8
ASHTABULA      FLURRIES  23  15  71 W22       29.75S WCI   8
AKRON-CANTON   LGT SNOW  19  13  77 W14       29.80S WCI   6
WOOSTER        NOT AVBL
MANSFIELD      FLURRIES  20  12  71 W14G24    29.82S WCI   7
YOUNGSTOWN     LGT SNOW  21  14  74 SW17      29.77R FOG     WCI   7
$$

OHZ042-051>053-060>062-070>072-077>081-101800-
  SOUTHWEST OHIO

CITY           SKY/WX    TMP DP  RH WIND       PRES   REMARKS
CINC-COVINGTON CLOUDY    17   8  67 W18       30.03R WCI   1
CINC-LUNKEN    LGT SNOW  18  10  71 W14       30.07R WCI   4
HAMILTON       LGT SNOW  19   9  65 W13G23    30.05R WCI   6
DAYTON         LGT SNOW  18  10  73 W21       29.97R WCI   1
WRIGHT-PAT AFB NOT AVBL
DAYTON GENERAL LGT SNOW  17   8  67 W12G21    29.98R WCI   4
WILMINGTON     LGT SNOW  15   9  76 W16       29.96R WCI  -1
$$

OHZ036-037-039>041-045>050-054>059-063>069-073>076-082>088-101800-
  CENTRAL AND SOUTHEAST OHIO

CITY           SKY/WX    TMP DP  RH WIND       PRES   REMARKS
COLUMBUS       LGT SNOW  18  10  71 W15G22    29.93R WCI   4
OSU AIRPORT    LGT SNOW  17  11  77 W21       29.92R VSB 3/4 WCI   0
BOLTON FIELD   LGT SNOW  18  10  73 W15G21    29.94R WCI   3
RICKENBACK AFB NOT AVBL
NEWARK         LGT SNOW  20  13  74 MISG      29.90S
MARION         LGT SNOW  19  12  74 W16       29.89R WCI   4
LANCASTER      LGT SNOW  18  12  77 W14G23    29.94R WCI   4
ZANESVILLE     LGT SNOW  20  11  68 SW13      29.90S WCI   7
NEW PHILLY     LGT SNOW  20  13  74 SW12G17   29.87S WCI   8
$$



USA.gov is the U.S. government's official web portal to all federal, state and local government web resources and services.